H1 CPF 2 NER 2020 11 17 9 322 01 glonass105 H2 0705202 9105 32276 2020 11 17 0 0 0 2020 11 20 23 45 0 900 1 1 0 0 0 1 H9 10 0 59170 0.00000 0 22012159.822 -12525449.064 2902130.413 10 0 59170 900.00000 0 21429533.734 -12393698.502 6091678.300 10 0 59170 1800.00000 0 20557527.414 -11978173.474 9162690.366 10 0 59170 2700.00000 0 19448648.272 -11250660.885 12055456.839 10 0 59170 3600.00000 0 18161917.527 -10195014.936 14713776.785 10 0 59170 4500.00000 0 16760318.456 -8808081.267 17086051.344 10 0 59170 5400.00000 0 15308100.193 -7100078.329 19126283.214 10 0 59170 6300.00000 0 13868051.203 -5094419.637 20794963.218 10 0 59170 7200.00000 0 12498857.343 -2826984.493 22059827.397 10 0 59170 8100.00000 0 11252655.121 -344867.727 22896470.952 10 0 59170 9000.00000 0 10172881.990 2295339.414 23288808.386 10 0 59170 9900.00000 0 9292512.585 5029665.712 23229372.175 10 0 59170 10800.00000 0 8632753.246 7789186.244 22719445.439 10 0 59170 11700.00000 0 8202247.832 10502658.376 21769027.100 10 0 59170 12600.00000 0 7996826.484 13099259.008 20396630.939 10 0 59170 13500.00000 0 7999806.391 15511310.710 18628922.895 10 0 59170 14400.00000 0 8182830.820 17676885.010 16500203.668 10 0 59170 15300.00000 0 8507210.415 19542176.071 14051746.430 10 0 59170 16200.00000 0 8925710.078 21063547.532 11331001.941 10 0 59170 17100.00000 0 9384706.238 22209168.595 8390685.738 10 0 59170 18000.00000 0 9826623.972 22960172.193 5287764.367 10 0 59170 18900.00000 0 10192551.687 23311287.720 2082359.481 10 0 59170 19800.00000 0 10424923.531 23270922.430 -1163409.706 10 0 59170 20700.00000 0 10470156.678 22860688.287 -4386623.682 10 0 59170 21600.00000 0 10281132.277 22114394.142 -7524776.914 10 0 59170 22500.00000 0 9819415.135 21076545.247 -10516985.923 10 0 59170 23400.00000 0 9057117.900 19800412.749 -13305167.847 10 0 59170 24300.00000 0 7978330.140 18345753.732 -15835166.746 10 0 59170 25200.00000 0 6580050.749 16776277.068 -18057805.831 10 0 59170 26100.00000 0 4872582.734 15156961.013 -19929845.065 10 0 59170 27000.00000 0 2879371.846 13551334.789 -21414825.491 10 0 59170 27900.00000 0 636293.611 12018837.893 -22483783.719 10 0 59170 28800.00000 0 -1809583.450 10612367.839 -23115822.414 10 0 59170 29700.00000 0 -4401708.859 9376119.124 -23298525.375 10 0 59170 30600.00000 0 -7076165.901 8343804.134 -23028208.654 10 0 59170 31500.00000 0 -9764105.245 7537330.874 -22310002.225 10 0 59170 32400.00000 0 -12394396.260 6965993.187 -21157759.922 10 0 59170 33300.00000 0 -14896386.244 6626207.715 -19593798.578 10 0 59170 34200.00000 0 -17202652.844 6501808.819 -17648470.682 10 0 59170 35100.00000 0 -19251634.834 6564889.049 -15359578.147 10 0 59170 36000.00000 0 -20990031.150 6777149.545 -12771638.023 10 0 59170 36900.00000 0 -22374867.387 7091702.972 -9935014.215 10 0 59170 37800.00000 0 -23375142.829 7455252.084 -6904932.143 10 0 59170 38700.00000 0 -23972988.676 7810550.792 -3740395.843 10 0 59170 39600.00000 0 -24164288.747 8099042.337 -503029.453 10 0 59170 40500.00000 0 -23958736.877 8263561.468 2744133.390 10 0 59170 41400.00000 0 -23379329.259 8250984.669 5937887.533 10 0 59170 42300.00000 0 -22461314.097 8014714.843 9016096.160 10 0 59170 43200.00000 0 -21250644.113 7516893.987 11918907.334 10 0 59170 44100.00000 0 -19801998.474 6730249.295 14589922.590 10 0 59170 45000.00000 0 -18176458.837 5639494.010 16977294.217 10 0 59170 45900.00000 0 -16438938.482 4242223.497 19034729.739 10 0 59170 46800.00000 0 -14655473.448 2549268.625 20722384.383 10 0 59170 47700.00000 0 -12890489.839 584491.593 22007624.786 10 0 59170 48600.00000 0 -11204161.765 -1615967.211 22865650.198 10 0 59170 49500.00000 0 -9649969.921 -4004959.890 23279960.318 10 0 59170 50400.00000 0 -8272561.881 -6526066.315 23242661.980 10 0 59170 51300.00000 0 -7106002.033 -9115722.075 22754610.011 10 0 59170 52200.00000 0 -6172482.530 -11705651.208 21825380.550 10 0 59170 53100.00000 0 -5481547.322 -14225503.352 20473078.148 10 0 59170 54000.00000 0 -5029859.891 -16605586.859 18723980.822 10 0 59170 54900.00000 0 -4801522.829 -18779585.558 16612029.995 10 0 59170 55800.00000 0 -4768934.621 -20687147.464 14178175.003 10 0 59170 56700.00000 0 -4894146.789 -22276239.082 11469584.369 10 0 59170 57600.00000 0 -5130663.906 -23505168.437 8538738.377 10 0 59170 58500.00000 0 -5425610.629 -24344193.413 5442419.834 10 0 59170 59400.00000 0 -5722174.585 -24776649.014 2240621.752 10 0 59170 60300.00000 0 -5962222.400 -24799546.886 -1004607.654 10 0 59170 61200.00000 0 -6088978.754 -24423622.098 -4230360.752 10 0 59170 62100.00000 0 -6049655.538 -23672825.148 -7374084.427 10 0 59170 63000.00000 0 -5797920.014 -22583280.124 -10374788.942 10 0 59170 63900.00000 0 -5296097.458 -21201752.191 -13174228.417 10 0 59170 64800.00000 0 -4517014.560 -19583688.065 -15718030.142 10 0 59170 65700.00000 0 -3445404.754 -17790910.968 -17956750.884 10 0 59170 66600.00000 0 -2078814.826 -15889066.092 -19846839.538 10 0 59170 67500.00000 0 -427972.842 -13944923.037 -21351487.399 10 0 59170 68400.00000 0 1483400.108 -12023647.723 -22441349.397 10 0 59170 69300.00000 0 3619328.588 -10186157.713 -23095121.981 10 0 59170 70200.00000 0 5932843.158 -8486671.385 -23299966.115 10 0 59170 71100.00000 0 8367711.739 -6970553.436 -23051766.678 10 0 59170 72000.00000 0 10860571.370 -5672546.943 -22355222.607 10 0 59170 72900.00000 0 13343372.797 -4615466.038 -21223765.308 10 0 59170 73800.00000 0 15746036.885 -3809404.029 -19679306.121 10 0 59170 74700.00000 0 17999212.391 -3251490.225 -17751816.971 10 0 59170 75600.00000 0 20037020.108 -2926205.491 -15478751.630 10 0 59170 76500.00000 0 21799668.405 -2806242.934 -12904318.296 10 0 59170 77400.00000 0 23235830.160 -2853876.916 -10078617.402 10 0 59170 78300.00000 0 24304680.951 -3022781.759 -7056661.464 10 0 59170 79200.00000 0 24977512.398 -3260222.223 -3897296.402 10 0 59170 80100.00000 0 25238852.479 -3509521.762 -662046.136 10 0 59170 81000.00000 0 25087045.628 -3712702.600 2586096.057 10 0 59170 81900.00000 0 24534268.426 -3813184.202 5783904.747 10 0 59170 82800.00000 0 23605980.829 -3758424.355 8869162.696 10 0 59170 83700.00000 0 22339836.980 -3502389.615 11781879.054 10 0 59170 84600.00000 0 20784102.590 -3007749.419 14465460.839 10 0 59170 85500.00000 0 18995646.727 -2247700.284 16867814.156 10 0 59171 0.00000 0 17037593.608 -1207342.598 18942353.643 10 0 59171 900.00000 0 14976733.841 115448.777 20648900.930 10 0 59171 1800.00000 0 12880804.247 1709695.398 21954454.783 10 0 59171 2700.00000 0 10815750.555 3551543.568 22833819.640 10 0 59171 3600.00000 0 8843086.354 5605038.358 23270081.139 10 0 59171 4500.00000 0 7017458.354 7823412.319 23254920.794 10 0 59171 5400.00000 0 5384517.818 10150834.767 22788765.011 10 0 59171 6300.00000 0 3979185.320 12524549.368 21880766.590 10 0 59171 7200.00000 0 2824379.286 14877311.575 20548619.876 10 0 59171 8100.00000 0 1930259.408 17140025.465 18818213.596 10 0 59171 9000.00000 0 1294014.580 19244471.347 16723128.183 10 0 59171 9900.00000 0 900202.670 21126011.692 14303987.145 10 0 59171 10800.00000 0 721626.509 22726163.973 11607674.525 10 0 59171 11700.00000 0 720708.459 23994934.191 8686432.915 10 0 59171 12600.00000 0 851305.272 24892814.624 5596858.782 10 0 59171 13500.00000 0 1060886.654 25392363.016 2398813.754 10 0 59171 14400.00000 0 1292985.785 25479297.534 -845727.766 10 0 59171 15300.00000 0 1489818.620 25153061.710 -4073872.884 10 0 59171 16200.00000 0 1594961.570 24426835.492 -7223023.708 10 0 59171 17100.00000 0 1555974.555 23326991.459 -10232086.950 10 0 59171 18000.00000 0 1326858.497 21892018.290 -13042656.252 10 0 59171 18900.00000 0 870243.056 20170955.819 -15600144.469 10 0 59171 19800.00000 0 159211.446 18221406.336 -17854844.020 10 0 59171 20700.00000 0 -821315.722 16107204.567 -19762894.579 10 0 59171 21600.00000 0 -2073697.391 13895843.053 -21287139.292 10 0 59171 22500.00000 0 -3587228.766 11655759.868 -22397852.741 10 0 59171 23400.00000 0 -5338354.188 9453601.564 -23073326.210 10 0 59171 24300.00000 0 -7291429.340 7351575.268 -23300298.559 10 0 59171 25200.00000 0 -9400002.952 5405000.260 -23074223.867 10 0 59171 26100.00000 0 -11608566.191 3660161.220 -22399369.984 10 0 59171 27000.00000 0 -13854698.169 2152552.767 -21288745.399 10 0 59171 27900.00000 0 -16071519.093 905588.630 -19763855.024 10 0 59171 28800.00000 0 -18190349.150 -70170.548 -17854288.850 10 0 59171 29700.00000 0 -20143462.231 -777238.646 -15597150.784 10 0 59171 30600.00000 0 -21866819.103 -1230865.839 -13036338.151 10 0 59171 31500.00000 0 -23302664.956 -1458155.526 -10221685.697 10 0 59171 32400.00000 0 -24401881.734 -1496674.509 -7207990.697 10 0 59171 33300.00000 0 -25125995.686 -1392616.248 -4053938.538 10 0 59171 34200.00000 0 -25448755.019 -1198596.133 -820950.458 10 0 59171 35100.00000 0 -25357210.828 -971173.663 2428023.132 10 0 59171 36000.00000 0 -24852255.586 -768208.070 5629739.086 10 0 59171 36900.00000 0 -23948596.722 -646161.007 8721902.337 10 0 59171 37800.00000 0 -22674166.925 -657462.059 11644385.745 10 0 59171 38700.00000 0 -21068996.811 -848049.872 14340404.385 10 0 59171 39600.00000 0 -19183598.377 -1255193.851 16757620.687 10 0 59171 40500.00000 0 -17076928.209 -1905689.097 18849158.785 10 0 59171 41400.00000 0 -14814016.738 -2814501.048 20574508.641 10 0 59171 42300.00000 0 -12463363.573 -3983916.928 21900302.922 10 0 59171 43200.00000 0 -10094208.052 -5403239.547 22800952.610 10 0 59171 44100.00000 0 -7773788.738 -7049036.159 23259130.204 10 0 59171 45000.00000 0 -5564705.503 -8885931.753 23266092.401 10 0 59171 45900.00000 0 -3522492.874 -10867913.662 22821837.295 10 0 59171 46800.00000 0 -1693504.071 -12940093.234 21935094.085 10 0 59171 47700.00000 0 -113192.016 -15040851.503 20623146.313 10 0 59171 48600.00000 0 1195143.149 -17104280.134 18911492.509 10 0 59171 49500.00000 0 2221089.891 -19062816.818 16833350.926 10 0 59171 50400.00000 0 2967315.549 -20849966.226 14429017.773 10 0 59171 51300.00000 0 3449204.766 -22402994.138 11745090.899 10 0 59171 52200.00000 0 3693962.510 -23665483.327 8833573.260 10 0 59171 53100.00000 0 3739220.160 -24589645.204 5750872.847 10 0 59171 54000.00000 0 3631203.804 -25138291.268 2556717.621 10 0 59171 54900.00000 0 3422542.052 -25286382.136 -686994.240 10 0 59171 55800.00000 0 3169805.707 -25022089.286 -3917387.080 10 0 59171 56700.00000 0 2930882.992 -24347324.716 -7071820.840 10 0 59171 57600.00000 0 2762301.007 -23277715.722 -10089101.356 10 0 59171 58500.00000 0 2716606.527 -21842024.983 -12910664.515 10 0 59171 59400.00000 0 2839916.928 -20081039.282 -15481711.482 10 0 59171 60300.00000 0 3169745.149 -18045972.247 -17752273.007 10 0 59171 61200.00000 0 3733191.231 -15796446.900 -19678182.075 10 0 59171 62100.00000 0 4545577.815 -13398141.274 -21221935.973 10 0 59171 63000.00000 0 5609588.546 -10920194.480 -22353430.882 10 0 59171 63900.00000 0 6914947.309 -8432480.798 -23050554.455 10 0 59171 64800.00000 0 8438653.675 -6002864.821 -23299624.539 10 0 59171 65700.00000 0 10145766.656 -3694551.690 -23095665.028 10 0 59171 66600.00000 0 11990705.717 -1563642.689 -22442512.861 10 0 59171 67500.00000 0 13919016.204 343002.046 -21352753.365 10 0 59171 68400.00000 0 15869526.582 1989504.577 -19847484.379 10 0 59171 69300.00000 0 17776807.990 3352241.304 -17955912.952 10 0 59171 70200.00000 0 19573833.488 4420593.168 -15714791.735 10 0 59171 71100.00000 0 21194725.548 5197142.854 -13167705.437 10 0 59171 72000.00000 0 22577475.991 5697311.231 -10364220.981 10 0 59171 72900.00000 0 23666523.489 5948449.200 -7358917.923 10 0 59171 73800.00000 0 24415079.340 5988424.364 -4210318.313 10 0 59171 74700.00000 0 24787102.757 5863763.485 -979737.669 10 0 59171 75600.00000 0 24758841.682 5627430.889 2269919.651 10 0 59171 76500.00000 0 24319873.704 5336338.487 5475396.020 10 0 59171 77400.00000 0 23473602.948 5048694.532 8574321.708 10 0 59171 78300.00000 0 22237192.177 4821304.992 11506436.313 10 0 59171 79200.00000 0 20640933.370 4706943.167 14214765.786 10 0 59171 80100.00000 0 18727083.960 4751899.894 16646731.422 10 0 59171 81000.00000 0 16548218.453 4993818.607 18755169.090 10 0 59171 81900.00000 0 14165165.266 5459906.995 20499239.111 10 0 59171 82800.00000 0 11644615.904 6165600.638 21845209.678 10 0 59171 83700.00000 0 9056506.650 7113734.622 22767099.615 10 0 59171 84600.00000 0 6471281.934 8294257.621 23247169.225 10 0 59171 85500.00000 0 3957152.934 9684500.005 23276250.926 10 0 59172 0.00000 0 1577464.448 11249984.456 22853914.617 10 0 59172 900.00000 0 -611721.820 12945745.397 21988465.500 10 0 59172 1800.00000 0 -2563729.168 14718101.523 20696775.500 10 0 59172 2700.00000 0 -4242966.613 16506808.822 19003951.663 10 0 59172 3600.00000 0 -5626161.097 18247504.077 16942848.375 10 0 59172 4500.00000 0 -6703070.593 19874337.992 14553432.525 10 0 59172 5400.00000 0 -7476650.805 21322688.805 11882013.476 10 0 59172 6300.00000 0 -7962669.822 22531843.877 8980352.063 10 0 59172 7200.00000 0 -8188788.030 23447537.893 5904665.170 10 0 59172 8100.00000 0 -8193142.691 24024241.995 2714544.366 10 0 59172 9000.00000 0 -8022497.156 24227108.292 -528191.189 10 0 59172 9900.00000 0 -7730032.732 24033488.192 -3760685.889 10 0 59172 10800.00000 0 -7372876.284 23433960.570 -6920260.292 10 0 59172 11700.00000 0 -7009467.724 22432825.964 -9945622.063 10 0 59172 12600.00000 0 -6696878.381 21048045.132 -12778051.919 10 0 59172 13500.00000 0 -6488193.485 19310623.374 -15362541.727 10 0 59172 14400.00000 0 -6430069.422 17263465.060 -17648862.745 10 0 59172 15300.00000 0 -6560569.322 14959744.960 -19592543.211 10 0 59172 16200.00000 0 -6907368.982 12460863.081 -21155736.226 10 0 59172 17100.00000 0 -7486409.798 9834067.112 -22307960.979 10 0 59172 18000.00000 0 -8301056.758 7149840.658 -23026702.607 10 0 59172 18900.00000 0 -9341798.436 4479165.192 -23297858.721 10 0 59172 19800.00000 0 -10586503.333 1890769.084 -23116023.438 10 0 59172 20700.00000 0 -12001223.451 -551522.073 -22484602.767 10 0 59172 21600.00000 0 -13541512.947 -2791223.793 -21415758.397 10 0 59172 22500.00000 0 -15154207.933 -4781318.219 -19930180.153 10 0 59172 23400.00000 0 -16779593.647 -6485978.182 -18056690.748 10 0 59172 24300.00000 0 -18353868.648 -7881817.948 -15831689.782 10 0 59172 25200.00000 0 -19811802.655 -8958618.569 -13298447.222 10 0 59172 26100.00000 0 -21089475.991 -9719497.825 -10506259.813 10 0 59172 27000.00000 0 -22126984.723 -10180518.359 -7509486.863 10 0 59172 27900.00000 0 -22870996.711 -10369751.499 -4366484.477 10 0 59172 28800.00000 0 -23277049.773 -10325837.463 -1138459.770 10 0 59172 29700.00000 0 -23311494.109 -10096104.315 2111731.663 10 0 59172 30600.00000 0 -22952996.190 -9734326.850 5320820.457 10 0 59172 31500.00000 0 -22193540.117 -9298221.975 8426364.963 10 0 59172 32400.00000 0 -21038883.977 -8846788.270 11367974.240 10 0 59172 33300.00000 0 -19508452.036 -8437603.835 14088487.761 10 0 59172 34200.00000 0 -17634667.685 -8124197.874 16535088.197 10 0 59172 35100.00000 0 -15461755.692 -7953607.970 18660325.428 10 0 59172 36000.00000 0 -13044064.609 -7964226.565 20423032.110 10 0 59172 36900.00000 0 -10443980.106 -8184027.446 21789113.563 10 0 59172 37800.00000 0 -7729516.776 -8629246.627 22732197.639 10 0 59172 38700.00000 0 -4971688.782 -9303572.519 23234133.181 10 0 59172 39600.00000 0 -2241768.541 -10197878.770 23285328.639 10 0 59172 40500.00000 0 391453.411 -11290510.360 22884925.586 10 0 59172 41400.00000 0 2864294.788 -12548110.570 22040804.834 10 0 59172 42300.00000 0 5120586.557 -13926953.927 20769425.865 10 0 59172 43200.00000 0 7113758.577 -15374729.513 19095503.169 10 0 59172 44100.00000 0 8808521.153 -16832700.349 17051525.910 10 0 59172 45000.00000 0 10182074.468 -18238149.121 14677130.028 10 0 59172 45900.00000 0 11224797.378 -19527008.664 12018334.514 10 0 59172 46800.00000 0 11940388.473 -20636567.871 9126655.935 10 0 59172 47700.00000 0 12345454.770 -21508140.391 6058117.697 10 0 59172 48600.00000 0 12468566.300 -22089584.874 2872172.430 10 0 59172 49500.00000 0 12348816.885 -22337571.360 -369442.403 10 0 59172 50400.00000 0 12033951.911 -22219498.750 -3603893.987 10 0 59172 51300.00000 0 11578141.988 -21714982.535 -6768466.248 10 0 59172 52200.00000 0 11039496.217 -20816849.664 -9801771.411 10 0 59172 53100.00000 0 10477419.750 -19531597.799 -12644937.675 10 0 59172 54000.00000 0 9949926.983 -17879298.421 -15242750.166 10 0 59172 54900.00000 0 9511023.699 -15892946.324 -17544723.071 10 0 59172 55800.00000 0 9208268.731 -13617281.176 -19506082.089 10 0 59172 56700.00000 0 9080618.365 -11107128.784 -21088638.087 10 0 59172 57600.00000 0 9156644.937 -8425329.712 -22261534.877 10 0 59172 58500.00000 0 9453205.587 -5640340.331 -23001856.293 10 0 59172 59400.00000 0 9974618.318 -2823605.021 -23295080.492 10 0 59172 60300.00000 0 10712381.369 -46807.953 -23135372.151 10 0 59172 61200.00000 0 11645449.066 2620881.754 -22525706.251 10 0 59172 62100.00000 0 12741053.939 5115457.322 -21477820.330 10 0 59172 63000.00000 0 13956041.826 7380504.061 -20011995.305 10 0 59172 63900.00000 0 15238664.769 9369310.322 -18156668.301 10 0 59172 64800.00000 0 16530756.961 11046571.670 -15947884.289 10 0 59172 65700.00000 0 17770202.430 12389617.158 -13428596.583 10 0 59172 66600.00000 0 18893590.324 13389106.556 -10647829.532 10 0 59172 67500.00000 0 19838945.326 14049169.809 -7659719.695 10 0 59172 68400.00000 0 20548417.187 14386983.651 -4522454.474 10 0 59172 69300.00000 0 20970814.767 14431804.262 -1297129.647 10 0 59172 70200.00000 0 21063876.467 14223498.155 1953450.986 10 0 59172 71100.00000 0 20796180.131 13810634.957 5166009.348 10 0 59172 72000.00000 0 20148610.897 13248224.390 8278034.833 10 0 59172 72900.00000 0 19115324.487 12595194.882 11229008.746 10 0 59172 73800.00000 0 17704165.004 11911722.046 13961586.668 10 0 59172 74700.00000 0 15936519.724 11256521.243 16422714.981 10 0 59172 75600.00000 0 13846617.195 10684219.589 18564659.652 10 0 59172 76500.00000 0 11480298.479 10242918.817 20345927.481 10 0 59172 77400.00000 0 8893313.443 9972051.805 21732062.427 10 0 59172 78300.00000 0 6149213.538 9900622.655 22696302.588 10 0 59172 79200.00000 0 3316928.991 10045903.668 23220086.225 10 0 59172 80100.00000 0 468131.050 10412643.057 23293398.314 10 0 59172 81000.00000 0 -2325511.714 10992815.718 22914952.191 10 0 59172 81900.00000 0 -4995070.205 11765926.649 22092203.857 10 0 59172 82800.00000 0 -7476972.362 12699853.662 20841199.499 10 0 59172 83700.00000 0 -9715394.566 13752193.728 19186259.716 10 0 59172 84600.00000 0 -11664329.434 14872056.511 17159506.675 10 0 59172 85500.00000 0 -13289245.835 16002230.197 14800243.249 10 0 59173 0.00000 0 -14568273.956 17081629.374 12154195.714 10 0 59173 900.00000 0 -15492867.481 18047922.823 9272633.672 10 0 59173 1800.00000 0 -16067917.103 18840232.036 6211384.445 10 0 59173 2700.00000 0 -16311310.663 19401786.923 3029758.998 10 0 59173 3600.00000 0 -16252960.370 19682428.571 -210589.597 10 0 59173 4500.00000 0 -15933337.333 19640853.174 -3446854.006 10 0 59173 5400.00000 0 -15401575.649 19246502.987 -6616284.158 10 0 59173 6300.00000 0 -14713225.651 18481024.098 -9657399.396 10 0 59173 7200.00000 0 -13927750.738 17339228.850 -12511177.863 10 0 59173 8100.00000 0 -13105873.074 15829521.223 -15122200.248 10 0 59173 9000.00000 0 -12306879.800 13973765.721 -17439725.776 10 0 59173 9900.00000 0 -11586003.206 11806603.574 -19418679.483 10 0 59173 10800.00000 0 -10991985.314 9374242.978 -21020531.614 10 0 59173 11700.00000 0 -10564929.732 6732772.076 -22214051.921 10 0 59173 12600.00000 0 -10334531.701 3946063.384 -22975923.951 10 0 59173 13500.00000 0 -10318761.567 1083355.479 -23291207.091 10 0 59173 14400.00000 0 -10523057.930 -1783388.675 -23153636.886 10 0 59173 15300.00000 0 -10940065.465 -4582237.665 -22565757.206 10 0 59173 16200.00000 0 -11549929.488 -7244047.860 -21538880.933 10 0 59173 17100.00000 0 -12321135.886 -9705105.594 -20092879.134 10 0 59173 18000.00000 0 -13211861.912 -11909545.285 -18255801.991 10 0 59173 18900.00000 0 -14171781.535 -13811442.703 -16063338.109 10 0 59173 19800.00000 0 -15144249.541 -15376495.960 -13558122.104 10 0 59173 20700.00000 0 -16068772.116 -16583223.841 -10788903.646 10 0 59173 21600.00000 0 -16883659.170 -17423631.555 -7809594.105 10 0 59173 22500.00000 0 -17528745.495 -17903316.430 -4678209.647 10 0 59173 23400.00000 0 -17948064.719 -18041009.857 -1455732.133 10 0 59173 24300.00000 0 -18092361.749 -17867575.974 1795089.053 10 0 59173 25200.00000 0 -17921336.296 -17424510.713 5010969.762 10 0 59173 26100.00000 0 -17405521.540 -16762006.210 8129333.077 10 0 59173 27000.00000 0 -16527717.731 -15936664.050 11089535.192 10 0 59173 27900.00000 0 -15283919.627 -15008955.589 13834050.375 10 0 59173 28800.00000 0 -13683698.414 -14040538.079 16309591.194 10 0 59173 29700.00000 0 -11750022.049 -13091540.954 18468141.983 10 0 59173 30600.00000 0 -9518521.673 -12217937.372 20267885.699 10 0 59173 31500.00000 0 -7036235.145 -11469111.946 21674006.632 10 0 59173 32400.00000 0 -4359880.395 -10885726.666 22659354.417 10 0 59173 33300.00000 0 -1553730.668 -10497973.999 23204957.623 10 0 59173 34200.00000 0 1312820.022 -10324289.459 23300378.232 10 0 59173 35100.00000 0 4167900.542 -10370576.470 22943901.420 10 0 59173 36000.00000 0 6939906.486 -10629974.770 22142558.084 10 0 59173 36900.00000 0 9560231.497 -11083180.976 20911980.484 10 0 59173 37800.00000 0 11965874.176 -11699307.037 19276094.371 10 0 59173 38700.00000 0 14101814.087 -12437240.060 17266653.670 10 0 59173 39600.00000 0 15923059.791 -13247446.294 14922626.610 10 0 59173 40500.00000 0 17396285.468 -14074143.743 12289444.760 10 0 59173 41400.00000 0 18500989.574 -14857752.545 9418128.809 10 0 59173 42300.00000 0 19230128.436 -15537520.696 6364307.372 10 0 59173 43200.00000 0 19590199.472 -16054215.246 3187147.007 10 0 59173 44100.00000 0 19600771.269 -16352766.196 -51786.567 10 0 59173 45000.00000 0 19293480.666 -16384752.036 -3289714.549 10 0 59173 45900.00000 0 18710539.126 -16110622.220 -6463855.942 10 0 59173 46800.00000 0 17902811.123 -15501562.587 -9512640.207 10 0 59173 47700.00000 0 16927545.118 -14540924.429 -12376898.277 10 0 59173 48600.00000 0 15845852.323 -13225155.914 -15001009.060 10 0 59173 49500.00000 0 14720039.025 -11564195.205 -17333979.238 10 0 59173 50400.00000 0 13610904.482 -9581306.989 -19330435.346 10 0 59173 51300.00000 0 12575117.941 -7312367.301 -20951508.864 10 0 59173 52200.00000 0 11662785.078 -4804624.484 -22165597.003 10 0 59173 53100.00000 0 10915306.415 -2114986.108 -22948984.159 10 0 59173 54000.00000 0 10363618.057 692098.553 -23286311.659 10 0 59173 54900.00000 0 10026889.233 3547073.880 -23170886.206 10 0 59173 55800.00000 0 9911732.055 6377930.852 -22604820.397 10 0 59173 56700.00000 0 10011957.408 9112968.135 -21599001.870 10 0 59173 57600.00000 0 10308887.954 11683546.912 -20172890.851 10 0 59173 58500.00000 0 10772215.711 14026724.885 -18354149.203 10 0 59173 59400.00000 0 11361368.451 16087659.656 -16178107.432 10 0 59173 60300.00000 0 12027327.526 17821681.031 -13687079.387 10 0 59173 61200.00000 0 12714820.188 19195945.342 -10929537.673 10 0 59173 62100.00000 0 13364793.321 20190602.496 -7959165.800 10 0 59173 63000.00000 0 13917063.153 20799426.958 -4833805.791 10 0 59173 63900.00000 0 14313027.762 21029886.528 -1614322.513 10 0 59173 64800.00000 0 14498326.326 20902646.905 1636592.219 10 0 59173 65700.00000 0 14425331.219 20450534.007 4855651.331 10 0 59173 66600.00000 0 14055366.277 19716999.246 7980214.624 10 0 59173 67500.00000 0 13360556.348 18754154.103 10949516.031 10 0 59173 68400.00000 0 12325229.150 17620458.554 13705851.115 10 0 59173 69300.00000 0 10946809.781 16378162.396 16195700.950 10 0 59173 70200.00000 0 9236169.958 15090608.540 18370770.275 10 0 59173 71100.00000 0 7217417.205 13819512.719 20188919.935 10 0 59173 72000.00000 0 4927132.992 12622334.412 21614975.969 10 0 59173 72900.00000 0 2413091.791 11549849.324 22621400.649 10 0 59173 73800.00000 0 -267485.468 10644024.635 23188813.595 10 0 59173 74700.00000 0 -3050070.842 9936285.103 23306354.136 10 0 59173 75600.00000 0 -5865273.159 9446241.277 22971879.213 10 0 59173 76500.00000 0 -8641485.353 9180931.593 22191994.071 10 0 59173 77400.00000 0 -11307626.362 9134608.631 20981916.015 10 0 59173 78300.00000 0 -13795865.119 9289077.135 19365174.431 10 0 59173 79200.00000 0 -16044215.037 9614568.629 17373153.032 10 0 59173 80100.00000 0 -17998892.731 10071115.249 15044483.062 10 0 59173 81000.00000 0 -19616344.492 10610364.851 12424298.794 10 0 59173 81900.00000 0 -20864857.630 11177761.131 9563369.054 10 0 59173 82800.00000 0 -21725690.695 11714997.393 6517120.894 10 0 59173 83700.00000 0 -22193676.430 12162641.073 3344573.548 10 0 59173 84600.00000 0 -22277272.940 12462818.911 107202.528 10 0 59173 85500.00000 0 -21998061.321 12561849.921 -3132244.650 99